Regional Weather Roundup
Issued by NWS

Home | Current Version | Previous Version | Graphics & Text | Print | Product List | Glossary Off
Versions: 1 2 3 4 5 6 7 8 9 10 11 12 13 14 15 16 17 18 19 20 21 22 23 24 25 26 27 28 29 30 31 32 33 34 35 36 37 38 39 40 41 42 43 44 45 46

000
ASUS45 KBOU 261510
RWRCO

WEATHER ROUNDUP FOR COLORADO
NATIONAL WEATHER SERVICE DENVER/BOULDER CO
900 AM MDT THU APR 26 2018

NOTE: "FAIR" INDICATES FEW OR NO CLOUDS BELOW 12000 FEET WITH NO
SIGNIFICANT WEATHER AND/OR OBSTRUCTIONS TO VISIBILITY.

COZ001>005-013-030-031-261600-
...NORTHWEST COLORADO...

CITY           SKY/WX    TMP DP  RH WIND       PRES   REMARKS
CRAIG          FAIR      47  26  44 CALM      30.30R
HAYDEN         FAIR      41  25  53 W3        30.31R
MEEKER         FAIR      45  25  45 CALM      30.30R
RANGELY        FAIR      49  27  42 NE21      30.27S
RABBIT EARS PA FAIR      30  21  69 W3        30.34R
STEAMBOAT SPGS FAIR      42  25  51 SE3       30.29S
WALDEN         FAIR      39  23  52 N8        30.33S
$$

COZ006>008-011-261600-
...WEST CENTRAL VALLEYS...

CITY           SKY/WX    TMP DP  RH WIND       PRES   REMARKS
GRAND JUNCTION FAIR      54  23  30 CALM      30.21R
MONTROSE       FAIR      52  13  21 SE3       30.24S
EAGLE          FAIR      44  18  35 CALM      30.28F
RIFLE          FAIR      49  25  39 CALM      30.25R
DELTA          FAIR      50  18  28 SE3       30.22S
NUCLA          FAIR      52   5  15 SW3       30.25S
$$

COZ017>023-064>068-261600-
...SOUTHWEST COLORADO...

CITY           SKY/WX    TMP DP  RH WIND       PRES   REMARKS
DURANGO        FAIR      49  10  20 NE6       30.15S
CORTEZ         FAIR      58   8  13 NE7       30.17S
PAGOSA SPRINGS FAIR      49   5  16 CALM      30.19S
TELLURIDE      FAIR      46  15  28 NE5       30.30S
WOLF CREEK PAS FAIR      32  10  40 NW5       30.39R WCI  27
$$

COZ009-010-012-014-032>034-037-058>063-261600-
...CENTRAL COLORADO...

CITY           SKY/WX    TMP DP  RH WIND       PRES   REMARKS
ASPEN          FAIR      46  17  31 N6        30.26R
BUENA VISTA    FAIR      49  13  23 N22G29    30.22S
COPPER MTN     NOT AVBL
BERTHOUD PASS  CLOUDY    18   7  62 NW8G24    30.32S WCI   7
COTTONWOOD PAS FAIR      46  18  31 CALM      30.28R
GUNNISON       FAIR      40  15  36 CALM      30.26S
GRANBY         CLOUDY    40  22  49 NE5       30.30R
KREMMLING      FAIR      50  25  37 NW6       30.30S
LEADVILLE      FAIR      37  15  40 N14G25    30.27S
MONARCH PASS   FAIR      30   9  40 N7G18     30.43R WCI  23
SALIDA         FAIR      47  19  32 SE14      30.30R
SUNLIGHT       FAIR      32  12  43 CALM      30.39R
WILKERSON PASS FAIR      30  21  69 E10       30.33S WCI  21
$$

COZ069>075-261600-
...SAN LUIS VALLEY/SANGRE DE CRISTO MOUNTAINS...

CITY           SKY/WX    TMP DP  RH WIND       PRES   REMARKS
ALAMOSA        FAIR      48  11  22 E7        30.19R
DEL NORTE      FAIR      52  12  20 NW24      30.21S
LA VETA PASS   FAIR      34  23  64 NE10G20   30.40S WCI  26
SAGUACHE       NOT AVBL
$$

COZ035-036-038>040-261600-
...NORTHERN COLORADO FRONT RANGE...

CITY           SKY/WX    TMP DP  RH WIND       PRES   REMARKS
DENVER INTL AP PTSUNNY   47  30  51 N24       30.27R
AURORA         PTSUNNY   44  28  55 N17G25    30.28R
FRONT RANGE AP PTSUNNY   46  30  53 N28G37    30.26R
ERIE MUNI ARPT CLOUDY    48  30  49 NE20G31   30.32R
BOULDER MUN AP PTSUNNY   48  32  53 N10       30.26R
CENTENNIAL     CLOUDY    43  29  57 N16G22    30.28R
BROOMFIELD     PTSUNNY   48  30  49 N20G25    30.27S
FORT COLLINS   FAIR      49  32  52 N22       30.28R
LONGMONT       PTSUNNY   52  32  46 NE20G28   30.27S
$$

COZ041-046-047-076>085-087-088-261600-
...PIKES PEAK/PALMER DIVIDE AND SOUTHERN FOOTHILLS...

CITY           SKY/WX    TMP DP  RH WIND       PRES   REMARKS
COLO. SPRINGS  FAIR      46  28  49 N30G48    30.24R
A. F. ACADEMY  LGT RAIN  42  30  63 N24G38    30.26R
SCHRIEVER AFB  NOT AVBL
CHEYENNE MTN   PTSUNNY   43  26  49 N22       30.19R
ELLICOTT         N/A    N/A N/A N/A N37G48    30.19R
FALCON         MIX PCPN  40  30  65 N25G37    30.26R
FORT CARSON    FAIR      49  27  42 N30G40    30.19R
LIMON          FAIR      48  29  47 N32G44    30.21R
MONUMENT HILL  LGT SNOW  36  30  80 N17G31    30.30R
CANON CITY     FAIR      55  30  38 NW7       30.18R
WALSENBURG     NOT AVBL
TRINIDAD       FAIR      51  24  34 N25G38    30.23R
$$

COZ042>045-048>051-090-091-261600-
...NORTHEAST COLORADO...

CITY           SKY/WX    TMP DP  RH WIND       PRES   REMARKS
GREELEY ARPT   FAIR      50  30  46 N22       30.27R
AKRON          PTSUNNY   49  30  48 N32G45    30.20R
BURLINGTON     FAIR      49  33  54 N31G48    30.08R
WRAY           PTSUNNY   54  32  43 N32G40    30.14R
YUMA           FAIR      50  23  34 N25G39    30.16S
STERLING       NOT AVBL
HOLYOKE        FAIR      54  34  47 N29G41    30.16R
FORT MORGAN    PTSUNNY   50  26  39 N26G36    30.24R
$$

COZ086-089-092>099-261600-
...SOUTHEAST COLORADO...

CITY           SKY/WX    TMP DP  RH WIND       PRES   REMARKS
PUEBLO         FAIR      55  28  35 N33G48    30.17R
LA JUNTA       FAIR      57  29  34 N31G43    30.15R
LAMAR          FAIR      57  31  37 N32G43    30.04R
SPRINGFIELD      N/A     51  30  44 N38G52    30.04R
$$




USA.gov is the U.S. government's official web portal to all federal, state and local government web resources and services.